Regional Weather Roundup
Issued by NWS

Home | Current Version | Previous Version | Text Only | Print | Product List | Glossary On
Versions: 1 2 3 4 5 6 7 8 9 10 11 12 13 14 15 16 17 18 19 20 21 22 23 24 25 26 27 28 29 30 31 32 33 34 35 36 37 38 39 40 41 42 43 44 45 46 47 48 49 50
000
ASUS42 KFFC 291503
RWRGA
WEATHER ROUNDUP FOR GEORGIA
NATIONAL WEATHER SERVICE PEACHTREE CITY GA
1100 AM EDT SUN MAY 29 2016

NOTE: "FAIR" INDICATES FEW OR NO CLOUDS BELOW 12,000 FEET WITH NO
SIGNIFICANT WEATHER AND/OR OBSTRUCTIONS TO VISIBILITY.

* = USE WITH CAUTION. THE STATIONS MARKED WITH AN ASTERISK MAY NOT
REPORT WEATHER SUCH AS PRECIPITATION, FOG, OR THUNDER AND ARE NOT
QUALITY CONTROLLED BY NWS.

THE REMARK "TC" DENOTES TEMPERATURE READING IN DEGREES CELSIUS.

GAZ001>058-291600-
NORTH GEORGIA

CITY           SKY/WX    TMP DP  RH WIND       PRES   REMARKS
ATLANTA        PTSUNNY   78  63  59 N5        30.14S
ATHENS         CLOUDY    73  67  81 VRB5      30.14S
CHAMBLEE       PTSUNNY   81  61  50 NW6       30.13F
ROME           MOSUNNY   78  62  57 VRB3      30.13F
WEST ATLANTA   MOSUNNY   79  64  60 E5        30.13F
GAINESVILLE    PTSUNNY   80  61  52 VRB5      30.16F
CARTERSVILLE   MOSUNNY   80  61  52 N3        30.14F


CITY           SKY/WX    TMP DP  RH WIND       PRES   REMARKS
DALTON*        CLOUDY    77  64  65 CALM      30.14F
LAWRENCEVILLE* SUNNY     79  64  61 NE6       30.15S
MARIETTA       MOSUNNY   80  64  58 NW3       30.14F
KENNESAW*      MOSUNNY   79  61  53 NW6       30.10F
CANTON*        MOSUNNY   79  55  44 NW5       30.16S
BLAIRSVILLE*     N/A    N/A N/A N/A MISG      30.18F
$$

GAZ059>098-102>109-291600-
CENTRAL GEORGIA

CITY           SKY/WX    TMP DP  RH WIND       PRES   REMARKS
AUGUSTA-BUSH   LGT RAIN  66  63  90 N16       30.09R
AUGUSTA-DANIEL LGT RAIN  66  61  84 N12G22    30.11R
COLUMBUS       SUNNY     78  65  63 CALM      30.11F
MACON          PTSUNNY   81  67  62 N8        30.11F
ROBINS AFB     PTSUNNY   78  67  70 VRB5      30.11S


CITY           SKY/WX    TMP DP  RH WIND       PRES   REMARKS
LAGRANGE*      SUNNY     81  70  70 W3        30.14S
SYLVANIA*      LGT RAIN  68  65  92 NW17G30   30.05R
MILLEDGEVILLE* PTSUNNY   73  63  68 N3        30.13R
$$

GAZ099>101-110>166-291600-
SOUTH GEORGIA

CITY           SKY/WX    TMP DP  RH WIND       PRES   REMARKS
SAVANNAH       HVY RAIN  69  66  90 NW21G35   30.01R FOG
VALDOSTA       SUNNY     82  66  58 N5        30.11R
ALMA           CLOUDY    78  63  59 VRB7G17   30.10R
ST SIMONS      PTSUNNY   78  66  66 W14G24    30.06R
FT STEWART     HVY RAIN  71  67  89 W12G20    30.04R
ALBANY         MOSUNNY   83  65  54 NW5       30.13S
HUNTER AFB     PTSUNNY   69  69 100 W13G20    29.99R
MOODY AFB      SUNNY     82  65  56 VRB3      30.10R
BRUNSWICK      CLOUDY    81  68  65 NW9G20    30.07S


CITY           SKY/WX    TMP DP  RH WIND       PRES   REMARKS
BAINBRIDGE*    SUNNY     81  70  69 E5        30.11S
MOULTRIE*      SUNNY     81  64  57 CALM      30.12S
VIDALIA*       PTSUNNY   70  63  78 NW8       30.10S
WAYCROSS*      MOSUNNY   80  66  62 N14       30.10R
DOUGLAS*       SUNNY     79  64  61 N6        30.13R
$$



USA.gov is the U.S. government's official web portal to all federal, state and local government web resources and services.